Overview Statistics Trail Chart Weather Telemetry Raw packets
 

This is the latest recevied weather packets stored in our database for station/object KO4LCK. If no packets are shown the sender has not sent any weather packets the latest 10 day(s).

<< 17 18 19 20 21 22 23 >>
Time Temp. Humidity Pressure Rain* Wind** Luminosity Snow
1788530109 30° C 67% 1019 hPa 0 mm - 328 W/m² -
1788529807 30° C 68% 1019 hPa 0 mm - 312 W/m² -
1788529507 29.44° C 69% 1018.9 hPa 0 mm - 298 W/m² -
1788529200 29.44° C 69% 1018.7 hPa 0 mm - 286 W/m² -
1788528895 28.89° C 71% 1018.8 hPa 0 mm - 271 W/m² -
1788528591 28.89° C 71% 1018.7 hPa 0 mm - 260 W/m² -
1788528286 28.33° C 73% 1018.6 hPa 0 mm - 245 W/m² -
1788527986 28.33° C 73% 1018.8 hPa 0 mm - 230 W/m² -
1788527681 28.33° C 74% 1018.8 hPa 0 mm - 216 W/m² -
1788527377 28.33° C 75% 1018.8 hPa 0 mm - 199 W/m² -
1788527075 27.78° C 77% 1018.9 hPa 0 mm - 184 W/m² -
1788526770 27.22° C 78% 1018.8 hPa 0 mm - 174 W/m² -
1788526467 26.67° C 81% 1018.8 hPa 0 mm - 158 W/m² -
1788526166 25.56° C 85% 1018.9 hPa 0 mm - 148 W/m² -
1788525863 25° C 89% 1018.9 hPa 0 mm - 111 W/m² -
1788525559 24.44° C 90% 1018.8 hPa 0 mm - 101 W/m² -
1788525258 24.44° C 91% 1019 hPa 0 mm - 52 W/m² -
1788524653 23.89° C 92% 1018.6 hPa 0 mm - 47 W/m² -
1788524348 23.89° C 93% 1018.7 hPa 0 mm - 44 W/m² -
1788524044 23.33° C 94% 1018.5 hPa 0 mm - 41 W/m² -
1788523740 23.33° C 94% 1018.5 hPa 0 mm - 38 W/m² -
1788523436 22.78° C 94% 1018.5 hPa 0 mm - 34 W/m² -
1788523132 22.78° C 95% 1018.5 hPa 0 mm - 31 W/m² -
1788522827 22.78° C 95% 1018.2 hPa 0 mm - 28 W/m² -
1788522527 22.78° C 95% 1018.3 hPa 0 mm - 24 W/m² -

* Rain latest hour (hover to see other rain measurements)
** Current wind speed in m/s (hover to see current wind gust speed)